Find Starlink 34257

NORAD ID: 65225 Int'l Des: 2025-176 Owner: SPXS Country: US Constellation: starlink operational
LEOCIRCULAR

当前视图

正在加载3D地球...

About Starlink 34257

Starlink 34257 (NORAD 65225) is a starlink constellation satellite (v2 mini) launched Aug 14, 2025 by SPXS of US. It operates in LEO, CIRCULAR orbit with a mass of 575.00 kg.

关于 Starlink 34257

正在加载描述...

即将过境

Passes for default location (London). Set your location on the main map for personalized predictions.

高度历史

Loading altitude history...

两行轨道根数

1 65225U 25176AD 26174.85052820 .00020440 00000-0 61420-3 0 9997
2 65225 53.1588 18.2366 0001794 98.7669 261.3537 15.34411207 49338
Epoch: Jun 23, 2026 • Age: 10 hours

当前状态

高度 462.3 km
速度 7.64 km/s
星下点 17.69°N, 172.95°E
发射日期 Aug 14, 2025
运行时间 0.8 years
类型 internet

技术详情

分类 Payload
质量 575.00 kg
干质量 530.00 kg
总质量 575.00 kg
长度 0.30 m
直径 4.10 m
跨度 29.00 m
形状 Box + pan
制造商 SPXS
平台类型 Starlink V2MO
阶段状态 In Orbit
所有者/国家 SPXS/US

Most Searched